Lid_Strength_Index
2 1 1 1 1 -1 -2 -2 -1 -1 -1 -1 -1 -1 0 2 2 4 6 2 0 -1 -1 1 1 2 2 3 3 3 8 10 9 8 7 5 6 4 4 5 4 4 4 3 2
2 2 1 1 1 -2 -2 -2 -1 -1 -1 -1 -1 -1 1 1 5 7 2 -1 -1 -1 1 3 4 3 5 4 4 6 9 9 6 6 6 5 5 5 6 6 6 5 3 3 3
2 2 2 1 0 -2 -2 -2 -1 -1 -1 -1 -1 -1 1 2 6 7 1 -1 -1 -1 2 2 2 4 6 5 6 6 9 7 6 5 5 5 5 5 6 8 6 6 5 4 4
2 2 2 1 -1 -2 -2 -2 -2 -1 -1 -1 -0 -1 1 4 13 4 0 1 1 -0 2 4 4 6 6 7 6 8 7 6 6 6 6 6 5 6 5 6 4 3 4 4 4
2 2 1 0 -2 -2 -2 -2 -2 -2 -1 -1 -1 -0 1 7 8 5 4 3 3 1 3 5 6 6 8 7 6 8 7 6 6 6 5 4 6 6 6 4 3 3 4 5 4
2 1 1 -1 -2 -2 -2 -2 -2 -2 -1 -1 -1 -1 3 9 3 4 6 5 4 2 3 4 5 6 6 7 8 7 7 7 6 5 5 6 6 5 5 4 4 4 5 4 4
1 1 0 -2 -2 -2 -2 -2 -2 -1 -1 -1 -1 0 4 7 3 4 6 6 5 6 4 4 3 6 5 8 6 7 9 7 7 6 6 5 7 8 5 4 5 5 5 4 4
1 1 0 -2 -2 -2 -2 -2 -1 -1 -1 -1 -1 1 6 3 2 4 5 6 4 4 4 3 3 7 6 6 7 9 8 10 8 6 6 6 9 6 5 5 6 5 5 5 4
1 1 0 -2 -2 -2 -2 -1 -1 -1 -1 -1 1 3 7 2 6 5 5 7 5 4 2 3 5 8 8 8 10 10 13 11 9 6 7 7 8 6 5 5 6 5 5 5 4
2 1 1 -1 -1 -2 -2 -1 -1 0 0 -0 1 5 4 7 6 6 5 5 6 4 6 6 7 9 10 9 14 13 12 11 11 8 8 8 7 6 6 6 6 6 5 5 5
2 2 1 0 -2 -2 -1 0 3 4 3 6 6 5 4 5 6 7 5 7 7 7 11 7 10 12 12 10 9 10 10 11 9 8 8 8 8 7 6 6 6 6 6 5 5
2 2 1 1 -1 -1 -0 3 4 4 7 5 4 4 3 5 9 9 6 10 9 11 9 11 12 9 10 9 9 10 10 11 9 8 8 9 9 7 7 7 6 6 6 5 5
2 2 1 2 -0 -0 2 2 0 1 7 6 4 5 5 6 10 10 7 10 11 11 11 12 9 8 10 10 10 10 11 11 11 9 9 9 9 9 8 6 6 5 5 5 5
3 2 1 2 3 1 3 -0 -1 0 11 9 7 5 4 6 11 6 5 9 11 12 10 10 7 9 10 12 10 12 9 9 10 11 13 9 14 10 8 9 7 6 6 5 5
3 2 2 4 4 4 3 0 -0 2 17 8 7 3 4 8 9 9 6 9 13 12 10 13 10 10 11 11 9 10 8 9 9 10 10 11 13 11 8 10 9 7 6 5 5
3 2 3 5 4 4 2 1 3 12 18 11 7 8 9 9 9 8 8 8 9 11 10 10 6 8 9 9 8 8 8 9 9 10 15 12 12 12 10 9 8 7 6 5 5
4 3 5 5 8 4 2 4 12 16 10 13 12 9 10 13 11 11 11 12 14 16 16 11 10 8 7 10 8 8 10 16 16 18 16 12 12 11 8 7 6 6 6 5 4
4 5 4 6 5 4 4 8 16 14 13 10 11 9 12 13 13 12 12 13 12 13 15 16 18 10 8 10 11 10 10 14 18 17 16 12 14 12 8 7 6 5 5 5 5
5 4 6 6 5 4 5 14 15 14 13 13 11 12 13 13 14 13 13 14 13 12 15 16 15 8 9 8 8 10 11 9 12 12 14 13 11 9 8 9 8 7 5 5 5
7 7 7 6 5 5 8 15 13 11 11 12 15 13 15 15 15 14 13 12 13 12 12 13 16 10 9 8 7 9 8 12 11 18 17 14 13 13 10 9 8 8 8 6 5
7 10 7 6 4 8 14 14 12 9 10 13 14 14 14 15 15 15 15 13 13 13 12 12 12 13 10 11 11 11 11 10 10 11 16 16 14 9 9 8 8 7 7 6 6
8 12 7 5 11 11 14 13 11 11 9 11 12 13 14 14 16 16 16 14 12 12 14 12 13 15 13 9 8 9 10 10 13 14 13 14 13 9 8 8 7 6 6 6 5
10 11 7 6 14 14 13 13 12 13 12 12 13 12 12 14 17 14 15 12 12 13 14 12 14 17 16 12 10 11 10 9 9 10 13 14 12 8 8 8 7 7 6 6 6
10 13 11 11 12 14 15 15 14 12 12 12 12 12 13 14 13 15 15 13 12 13 11 11 13 14 15 14 11 13 11 10 10 12 12 12 11 9 8 7 7 7 6 6 6
11 16 15 16 15 14 14 15 15 16 13 12 13 13 15 17 15 16 15 15 12 12 13 13 15 13 11 10 10 11 11 11 11 10 12 11 11 9 11 9 10 9 7 7 7
13 13 13 15 16 14 14 16 16 15 15 15 16 14 13 16 15 17 16 16 15 15 15 14 14 13 14 11 11 12 10 10 10 10 10 9 10 11 11 11 12 11 11 11 11
11 11 12 15 15 15 16 16 15 14 13 13 14 15 14 13 13 13 13 14 15 16 16 16 16 15 17 12 13 16 18 15 11 17 16 12 13 14 14 14 15 13 14 13 13